Other Public Products
Issued by NWS Grand Forks, ND

Home | Current Version | Previous Version | Graphics & Text | Print | Product List | Glossary On
Versions: 1 2 3 4 5 6 7 8 9 10 11 12 13 14 15 16 17 18 19 20 21 22 23 24 25 26 27 28 29 30 31 32 33 34 35 36 37 38 39 40 41 42 43 44 45 46 47 48 49 50
000
FPUS83 KFGF 010010
OPUFGF
PRAIRIE TO PINES WEATHER ROUNDUP
NATIONAL WEATHER SERVICE EASTERN NORTH DAKOTA/GRAND FORKS ND
600 PM CST SAT FEB 28 2015

 **SATELLITE DATA USED TO AUGMENT SKY COVER AT AUTOMATED STATIONS**
 *****  WEATHER ACROSS EASTERN NORTH DAKOTA  *****

CITY           SKY/WX    TMP DP  RH WIND       PRES   REMARKS
GRAND FORKS    FLURRIES  21  15  78 SW10      30.11R WCI  10
6HR MIN TEMP:  16; 6HR MAX TEMP:  23; 6HR PCP: TRACE;

GRAND FORKS AF CLOUDY    19  10  68 W15       30.12R WCI   5
GRAND CITY NWS   N/A     21 N/A N/A W10         N/A  WCI  10
BUXTON         NOT AVBL
DEVILS LAKE    CLEAR      9   0  66 W16       30.11R WCI  -9
6HR MIN TEMP:   9; 6HR MAX TEMP:  19;

FARGO          LGT SNOW  25  16  68 S15       30.14S WCI  13
6HR MIN TEMP:  23; 6HR MAX TEMP:  28; 6HR PCP: TRACE;

WAHPETON ARPT  CLOUDY    23  18  80 S10       30.18S WCI  12
$$

 *****  WEATHER ACROSS CENTRAL AND WESTERN NORTH DAKOTA  *****

CITY           SKY/WX    TMP DP  RH WIND       PRES   REMARKS
JAMESTOWN      MOCLDY    14   5  67 NW13      30.14R WCI   0
6HR MIN TEMP:  14; 6HR MAX TEMP:  23;

BISMARCK       CLEAR     17   2  51 NW13      30.17R WCI   4
6HR MIN TEMP:  17; 6HR MAX TEMP:  22;

MINOT          CLEAR     10   1  67 W16       30.13S WCI  -7
6HR MIN TEMP:   9; 6HR MAX TEMP:  13;

MINOT AFB      CLEAR      9   3  78 NW12      30.12S WCI  -6
6HR MIN TEMP:   6; 6HR MAX TEMP:  11; 6HR PCP: TRACE;

GARRISON         N/A     11   2  67 NW15      30.13S WCI  -5
6HR MIN TEMP:   9; 6HR MAX TEMP:  13;

WILLISTON      CLEAR     15   3  59 NW6       30.14F WCI   6
6HR MIN TEMP:  12; 6HR MAX TEMP:  17; 6HR PCP: TRACE;

DICKINSON      PTCLDY    17   4  56 NW16      30.08S WCI   2
6HR MIN TEMP:  15; 6HR MAX TEMP:  21;

HETTINGER      MOCLDY    18   4  54 W18       30.12R WCI   2
6HR MIN TEMP:  17; 6HR MAX TEMP:  21;

$$

 *****  OTHER OBSERVATIONS NORTHEAST NORTH DAKOTA  *****

CITY           SKY/WX    TMP DP  RH WIND       PRES   REMARKS
WALHALLA       HAZE      14   7  73 W8        30.09S VSB<1/4 WCI   3
LANGDON        NOT AVBL
CAVALIER       FAIR      16   7  67 W12G17    30.09S WCI   3
GRAFTON        NOT AVBL
CANDO          MOCLDY     5   0  78 W14       30.10S WCI -12
FORT TOTTEN    NOT AVBL
ROLLA          FAIR       9   0  66 W7        30.06R WCI  -3
RUGBY          FAIR       5   0  78 W16       30.12R WCI -14
 ***** THE ABOVE OBSERVATIONS ARE NON NWS ARE NOT QUALITY
        CONTROLLED AND MAY MIS-REPORT RAIN FOR SNOW...
$$

 *****  OTHER OBSERVATIONS SOUTHEAST NORTH DAKOTA *****

CITY           SKY/WX    TMP DP  RH WIND       PRES   REMARKS
COOPERSTOWN    NOT AVBL
VALLEY CITY    FLURRIES  16  14  93 NW18      30.12R WCI  -1
OAKES            N/A     23  16  74 W12       30.14R WCI  12
GWINNER        CLOUDY    28  18  64 SW12      30.14S WCI  18
SHEYENNE NWR     N/A     25  15  64 SW7       29.95S WCI  17
BUFFALO        NOT AVBL
WYNDMERE         N/A     25  18  74 SW7         N/A  WCI  17
 ***** THE ABOVE OBSERVATIONS ARE NON NWS ARE NOT QUALITY
       CONTROLLED AND MAY MIS-REPORT RAIN FOR SNOW...
$$

  *****  WEATHER ACROSS NORTHERN MINNESOTA  *****

CITY           SKY/WX    TMP DP  RH WIND       PRES   REMARKS
FLAG ISLAND    LGT SNOW  19  18  93 SW14      30.06S VSB 3/4 WCI   6
WARROAD        LGT SNOW  21  18  86 S7        30.07F WCI  13
ROSEAU         LGT SNOW  21  18  86 S9        30.06F WCI  11
HALLOCK        CLOUDY    19  14  79 SW10      30.08S WCI   8
THF RVR FALLS  CLOUDY    21  19  93 SW12      30.09S VSB 1   WCI   9
6HR MIN TEMP:  18; 6HR MAX TEMP:  23;

HALSTAD        NOT AVBL
FOSSTON        LGT SNOW  18  16  93 S17       30.11S WCI   2
BAUDETTE       CLOUDY    22  10  60 S16       30.07F WCI   8
6HR MIN TEMP:  18; 6HR MAX TEMP:  24;

WASKISH        CLOUDY    21  10  63 S10       30.12S WCI  10
CROOKSTON      CLOUDY    21  18  86 SW15      30.12S WCI   8
$$
  *****  WEATHER ACROSS CENTRAL AND WEST MINNESOTA  *****

CITY           SKY/WX    TMP DP  RH WIND       PRES   REMARKS
BEMIDJI        FLURRIES  19  12  72 S14       30.12F WCI   6
PARK RAPIDS    LGT SNOW  19  12  74 S15       30.15F WCI   5
6HR MIN TEMP:  19; 6HR MAX TEMP:  23; 6HR PCP: TRACE;

WADENA         LGT SNOW  18  12  79 S9        30.19S WCI   6
DETROIT LAKES  LGT SNOW  21  18  86 S12       30.15S WCI   9
MOORHEAD       RAIN      25  21  86 S10G16    30.16S WCI  15
FERGUS FALLS   LGT SNOW  21  14  73 S15       30.22S WCI   8
ELBOW LAKE     FLURRIES  20  14  78 S20G25    30.19S WCI   5
6HR MIN TEMP:  20; 6HR MAX TEMP:  23;

MORRIS MN      CLOUDY    21  12  68 S15G22    30.20S WCI   8
STAPLES        LGT SNOW  18  12  79 S12G23    30.21R WCI   5
WHEATON        PTCLDY    21  14  73 SE13      30.20F WCI   9
$$
  *****  WEATHER ELSEWHERE ACROSS MINNESOTA  *****

CITY           SKY/WX    TMP DP  RH WIND       PRES   REMARKS
DULUTH         PTCLDY    18   2  49 S10       30.22F WCI   6
6HR MIN TEMP:  17; 6HR MAX TEMP:  21;

INTRNTL FALLS  CLOUDY    21   2  43 SW9       30.12F WCI  11
6HR MIN TEMP:  21; 6HR MAX TEMP:  26;

ELY            CLEAR     18  -2  41 S9        30.18S WCI   6
CLOQUET        CLOUDY    19   0  42 S10       30.23F WCI   8
BRAINERD       CLOUDY    17   8  67 S15       30.23S WCI   2
6HR MIN TEMP:  17; 6HR MAX TEMP:  21;

HIBBING        CLOUDY    20  -2  38 S8G17     30.19F WCI  10
6HR MIN TEMP:  18; 6HR MAX TEMP:  23;

ALEXANDRIA     LGT SNOW  19  12  74 S14G23    30.20F WCI   6
6HR MIN TEMP:  18; 6HR MAX TEMP:  21; 6HR PCP: TRACE;

SAINT CLOUD    CLOUDY    18   6  59 S20       30.28F WCI   2
6HR MIN TEMP:  18; 6HR MAX TEMP:  21;

MINNEAPOLIS    MOCLDY    14   3  61 S14       30.37F WCI  -1
6HR MIN TEMP:  14; 6HR MAX TEMP:  20;

$$

  *****  WEATHER ACROSS SOUTH DAKOTA  *****

CITY           SKY/WX    TMP DP  RH WIND       PRES   REMARKS
SIOUX FALLS    PTCLDY    26  13  57 S13       30.21R WCI  15
6HR MIN TEMP:  19; 6HR MAX TEMP:  27;

BROOKINGS      NOT AVBL
WATERTOWN      MOCLDY    23  12  62 S8        30.13S WCI  14
6HR MIN TEMP:  18; 6HR MAX TEMP:  25;

HURON          CLOUDY    29  19  66 NW15      30.14R WCI  18
6HR MIN TEMP:  24; 6HR MAX TEMP:  32;

SISSETON         N/A     26  15  63 S10       30.15S WCI  16
ABERDEEN       CLOUDY    26  16  65 W8        30.15R WCI  18
6HR MIN TEMP:  21; 6HR MAX TEMP:  29; 6HR PCP: TRACE;

MITCHELL       PTCLDY    32  11  41 S8        30.16F WCI  25
PIERRE         CLEAR     27   8  44 N12       30.15R WCI  17
6HR MIN TEMP:  27; 6HR MAX TEMP:  33;

MOBRIDGE       CLEAR     21   8  57 N13       30.14R WCI   9
RAPID CITY     CLEAR     21  10  62 N13       30.10S WCI   9
6HR MIN TEMP:  20; 6HR MAX TEMP:  23;

$$

  *****  SOME WEATHER IN NEARBY STATES *****

CITY           SKY/WX    TMP DP  RH WIND       PRES   REMARKS
GLASGOW MT     CLEAR     23   5  46 W18       30.12F WCI   9
6HR MIN TEMP:  13; 6HR MAX TEMP:  25;

GREAT FALLS MT MOSUNNY   24   7  48 W12G17    30.13R WCI  13
6HR MIN TEMP:  16; 6HR MAX TEMP:  24;

CHEYENNE WY    CLOUDY    20  11  68 E7        29.91R WCI  11
6HR MIN TEMP:  17; 6HR MAX TEMP:  22;

SCOTTSBLUFF NE PTCLDY    31  10  41 E9        30.02R WCI  23
6HR MIN TEMP:  24; 6HR MAX TEMP:  34;

OMAHA NE       LGT SNOW  23  16  74 S12       30.35F FOG     WCI  12
6HR MIN TEMP:  21; 6HR MAX TEMP:  23; 6HR PCP: TRACE;

DES MOINES IA  LGT SNOW  22  17  81 SE6       30.39F WCI  14
6HR MIN TEMP:  20; 6HR MAX TEMP:  24; 6HR PCP:  0.02;

DAVENPORT IA   LGT SNOW  15   9  76 E9        30.50F WCI   3
6HR MIN TEMP:  15; 6HR MAX TEMP:  19; 6HR PCP: TRACE;

CHICAGO IL     CLOUDY    19   4  51 S7        30.52F WCI  10
6HR MIN TEMP:  17; 6HR MAX TEMP:  21;

EAU CLAIRE WI  CLOUDY    16  -1  47 S10       30.40F WCI   4
6HR MIN TEMP:  13; 6HR MAX TEMP:  18;

LA CROSSE WI   CLOUDY    18   0  45 S10       30.45F WCI   6
6HR MIN TEMP:  12; 6HR MAX TEMP:  19;

$$

  *****  SOME NATIONAL WEATHER *****

CITY           SKY/WX    TMP DP  RH WIND       PRES   REMARKS


USA.gov is the U.S. government's official web portal to all federal, state and local government web resources and services.